Regional Weather Roundup
Issued by NWS Raleigh/Durham, NC

Home | Current Version | Previous Version | Text Only | Print | Product List | Glossary On
Versions: 1 2 3 4 5 6 7 8 9 10 11 12 13 14 15 16 17 18 19 20 21 22 23 24 25 26 27 28 29 30 31 32 33 34 35 36 37 38 39 40 41 42 43 44 45 46 47 48 49 50
000
ASUS42 KRAH 022010
RWRRAH
NORTH CAROLINA WEATHER ROUNDUP
NATIONAL WEATHER SERVICE RALEIGH NC
400 PM EDT SUN AUG 02 2015

NOTE: "FAIR" INDICATES FEW OR NO CLOUDS BELOW 12,000 FEET WITH NO
SIGNIFICANT WEATHER AND/OR OBSTRUCTIONS TO VISIBILITY.

NCZ001-053-055-056-065-067-022100-
WESTERN NORTH CAROLINA

CITY           SKY/WX    TMP DP  RH WIND       PRES   REMARKS
ASHEVILLE      SUNNY     86  55  34 S9        30.02F
JEFFERSON      MOSUNNY   75  53  44 CALM      30.09F
MORGANTON        N/A     92  49  23 W3        30.01F
HICKORY        MOSUNNY   91  54  28 SW6       29.96F
RUTHERFORDTON  CLOUDY    88  57  34 N5        29.96F
MOUNT AIRY     SUNNY     87  54  31 CALM      30.01F
BOONE          MOSUNNY   76  58  53 E3        30.09F
$$

NCZ021-022-025-041-071-084-088-022100-
CENTRAL NORTH CAROLINA

CITY           SKY/WX    TMP DP  RH WIND       PRES   REMARKS
CHARLOTTE      PTSUNNY   92  54  27 CALM      29.95F
GREENSBORO     MOSUNNY   88  52  29 NW7       29.97F
WINSTON-SALEM  SUNNY     87  55  33 N5        29.99F
RALEIGH-DURHAM MOSUNNY   89  58  34 NE8       29.95F
FORT BRAGG     SUNNY     95  58  28 E1        29.91F
FAYETTEVILLE   SUNNY     95  55  26 E6        29.91F
BURLINGTON     SUNNY     89  58  34 CALM      29.96F
LAURINBURG     SUNNY     93  53  25 SE6       29.92F
$$

NCZ011-015-027-028-043-044-047-080-103-022100-
NORTHEASTERN NORTH CAROLINA

CITY           SKY/WX    TMP DP  RH WIND       PRES   REMARKS
ROCKY MT-WILSO SUNNY     94  56  27 VRB6      29.92F
GREENVILLE     SUNNY     95  61  31 S6        29.93F HX  95
WASHINGTON     MOSUNNY   90  61  37 S5        29.92S
ELIZABETH CITY MOSUNNY   92  65  40 VRB3      29.90F
MANTEO         PTSUNNY   84  73  70 S9G17     29.93S
CAPE HATTERAS  MOSUNNY   86  76  71 SW8       29.94F HX  96
$$

NCZ078-087-090-091-093-098-101-022100-
SOUTHEASTERN NORTH CAROLINA

CITY           SKY/WX    TMP DP  RH WIND       PRES   REMARKS
LUMBERTON      MOSUNNY   98  58  26 VRB6      29.91S HX  97
GOLDSBORO      SUNNY     94  59  30 N2        29.90F
KINSTON        SUNNY     93  54  26 NW6       29.92F
KENANSVILLE    MOSUNNY   92  54  27 CALM      29.93F
NEW BERN       PTSUNNY   88  72  58 S14G21    29.94R
CHERRY POINT   NOT AVBL
BEAUFORT       MOSUNNY   85  78  80 S17       29.94F HX  96
JACKSONVILLE   CLOUDY    81  74  79 SW8       29.94S
WILMINGTON     PTSUNNY   85  73  67 SE10G18   29.94S
$$




USA.gov is the U.S. government's official web portal to all federal, state and local government web resources and services.